User: anonymous
Location: Brno
(49.2000°N, 16.6330°E)
Time: 15:47:30
(UTC+02:00)
Language:

Cosmos 1603 - Orbit

View from above orbital plane
View from above orbital plane
View from above satellite
View from above satellite

Ground track
Ground track

The orbit data is extracted from the following two-line orbital elements,

1 15333U 84106A   14109.16408027  .00000309  00000-0  18763-3 0  9661
2 15333 071.0292 350.7351 0019070 170.9961 357.9909 14.13931745524991
Epoch (UTC): 19 April 2014 03:56:16
Eccentricity: 0.0019070
inclination: 71.0292°
perigee height: 832 km
apogee height: 860 km
right ascension of ascending node: 350.7351°
argument of perigee: 170.9961°
revolutions per day: 14.13931745
mean anomaly at epoch: 357.9909°
orbit number at epoch: 52499

The dashed part of the orbit path shows where the satellite is in the earth's shadow,  

DLR